[[{"header":{"parameterUnit":"m.s-1","parameterCategory":1,"la1":30.2991,"la2":30.254,"lo1":-89.0895,"lo2":-89.0444,"dy":0.0017,"dx":0.0017,"nx":28,"ny":28,"refTime":"2025-12-25T09:00:00:Z","depth":0,"parameterNumber":2,"parameterNumberName":"U-component_of_WINDS"},"data":[0,0,0,0,0,0,0,0,0,0,0,0,0,0,0,0,0,0,0,0,0,0,0,0,0,0,0,0,0,0,0,0,0,0,0,0,0,0,0,0,0,0,0,0,0,0,0,0,0,0,0,0,0,0,0,0,0,0,0.6026,0.6027,0,0.6156,0.6158,0.6159,0.6212,0.6211,0.6211,0.6211,0.6348,0.6352,0.6356,0,0,0,0,0,0,0,0,0,0,0,0,0,0.5826,0.583,0.6026,0.6027,0.6029,0.6156,0.6158,0.6159,0.6212,0.6211,0.6211,0.621,0.6347,0.6351,0.6356,0,0,0,0,0,0,0,0,0,0,0,0,0,0.593,0.5831,0.6025,0.607,0.6075,0.6155,0.6158,0.616,0.6212,0.6211,0.6211,0.621,0.6345,0.6351,0.6357,0.6403,0,0,0.6375,0.6378,0,0,0,0,0,0,0,0,0.5924,0.5938,0.6062,0.6067,0.6073,0.6167,0.6138,0.6242,0.6212,0.616,0.6211,0.621,0.6288,0.6299,0.6325,0.641,0.6415,0.6375,0.6379,0.6382,0.6383,0,0,0,0,0,0,0,0.5917,0.5932,0.6077,0.6064,0.6071,0.6085,0.6099,0.6158,0.6226,0.6165,0.6169,0.6183,0.6292,0.6319,0.6328,0.6417,0.6375,0.6381,0.6384,0.6387,0.6549,0.655,0,0,0,0,0,0,0.5902,0.5926,0.6073,0.6081,0.5996,0.6089,0.6105,0.6137,0.6225,0.6238,0.6183,0.6185,0.6309,0.6321,0.6333,0.6394,0.6382,0.6387,0.6391,0.6548,0.6549,0.655,0,0,0,0,0,0,0.5897,0.5915,0.6068,0.6005,0.6025,0.6093,0.6129,0.614,0.6168,0.6239,0.6252,0.6199,0.6309,0.6325,0.6386,0.64,0.639,0.6395,0.6547,0.6548,0.655,0.6515,0,0,0,0,0,0,0.5891,0.5913,0.593,0.6005,0.6029,0.6116,0.613,0.6143,0.6177,0.6181,0.6257,0.6269,0.631,0.6376,0.6391,0.6408,0.64,0.6546,0.6548,0.6549,0.6516,0.6515,0.6515,0,0,0,0,0,0.5884,0.5915,0.593,0.5948,0.6051,0.6117,0.6131,0.6176,0.6178,0.6197,0.6243,0.6267,0.6396,0.6382,0.6399,0.6418,0.6546,0.6547,0.6549,0.6516,0.6515,0.6515,0,0,0,0,0,0,0.5841,0.5926,0.5943,0.5999,0.605,0.6126,0.615,0.6174,0.6226,0.6227,0.6283,0.63,0.6356,0.6393,0.6376,0.6468,0.6473,0.6478,0.6441,0.6442,0.6441,0.6431,0.6405,0,0,0,0,0,0.5838,0.5883,0.5955,0.5998,0.6023,0.6082,0.6112,0.6143,0.6198,0.6221,0.6271,0.6325,0.6379,0.6412,0.6465,0.6522,0.654,0.6543,0.6543,0.6542,0.6546,0.658,0.6583,0.6555,0.6555,0.6555,0,0,0.5832,0.5884,0.5909,0.5991,0.6034,0.6081,0.61,0.6148,0.6184,0.6228,0.6288,0.6328,0.6392,0.6451,0.648,0.6484,0.6557,0.6544,0.6543,0.6547,0.6582,0.6584,0.6587,0.6557,0.6556,0.6556,0,0,0.5846,0.5889,0.593,0.5973,0.6037,0.6077,0.6087,0.6159,0.6186,0.6247,0.6281,0.6326,0.6416,0.646,0.6495,0.6527,0.6551,0.6543,0.6541,0.6573,0.6576,0.6578,0.659,0.6594,0.6546,0.6546,0.6546,0,0.5831,0.5901,0.5948,0.5995,0.603,0.6072,0.6114,0.6154,0.6233,0.6257,0.6261,0.6375,0.6421,0.6492,0.65,0.6526,0.654,0.6534,0.6571,0.6574,0.6577,0.6589,0.6593,0.6545,0.6545,0.6545,0.6545,0,0.588,0.5929,0.5954,0.6028,0.6067,0.6111,0.6166,0.62,0.6228,0.6267,0.633,0.6387,0.6452,0.6471,0.6499,0.6546,0.6547,0.656,0.6566,0.6577,0.659,0.6595,0.6543,0.6543,0.6544,0.6544,0,0,0.5869,0.5969,0.5978,0.6013,0.6088,0.6127,0.6174,0.6237,0.6265,0.6319,0.6361,0.6437,0.645,0.6489,0.6522,0.6551,0.6574,0.6561,0.6563,0.6561,0.6631,0.662,0.6625,0.659,0.6591,0.6592,0.6625,0,0.5893,0.5977,0.6022,0.6088,0.6135,0.6176,0.6217,0.6269,0.6307,0.6354,0.6397,0.645,0.6462,0.6487,0.6517,0.6564,0.6588,0.6562,0.6631,0.6633,0.6613,0.6631,0.662,0.6649,0.6631,0.6631,0.6632,0,0.5932,0.5984,0.6054,0.6125,0.6147,0.6183,0.6245,0.6288,0.6348,0.6375,0.6418,0.6452,0.6505,0.6507,0.6582,0.6563,0.6594,0.6622,0.6624,0.6633,0.6633,0.664,0.6659,0.6663,0.664,0.664,0.6639,0,0.5917,0.6005,0.6059,0.6088,0.6172,0.6196,0.6233,0.6292,0.6328,0.6383,0.6407,0.6467,0.65,0.6548,0.6597,0.6593,0.6668,0.6673,0.6692,0.6691,0.6706,0.6704,0.673,0.6725,0.6725,0.6725,0.6725,0,0.5939,0.5981,0.6054,0.6087,0.6136,0.6187,0.6235,0.6275,0.6328,0.6371,0.641,0.645,0.6513,0.6561,0.66,0.6657,0.6672,0.6696,0.6705,0.6692,0.6689,0.6713,0.6712,0.6726,0.6726,0.6726,0.6725,0,0.593,0.5981,0.6043,0.6117,0.6137,0.617,0.6235,0.6269,0.631,0.6364,0.638,0.6445,0.6504,0.6558,0.6637,0.6663,0.6721,0.6733,0.67,0.6705,0.6721,0.6719,0.6764,0.6773,0.6761,0.6761,0.6761,0,0.5941,0.5974,0.6052,0.6083,0.6118,0.6168,0.6204,0.6257,0.6294,0.6365,0.6392,0.6453,0.6505,0.6598,0.6653,0.6714,0.6729,0.674,0.6738,0.6724,0.673,0.6727,0.6731,0.674,0.6739,0.6739,0.6739,0,0.5954,0.5978,0.6028,0.6088,0.6129,0.6179,0.623,0.6254,0.6316,0.6356,0.6416,0.6456,0.6536,0.6598,0.6665,0.6704,0.6733,0.6739,0.6747,0.6734,0.6713,0.6725,0.6699,0.6738,0.6738,0.6738,0.6738,0.6738,0.5957,0.5988,0.6048,0.6103,0.6147,0.6194,0.623,0.6276,0.6327,0.6395,0.6424,0.6485,0.6547,0.6639,0.6679,0.6729,0.6735,0.6746,0.6749,0.675,0.6748,0.6705,0.6741,0.6742,0.6742,0.6742,0.6742,0,0.5972,0.6013,0.6063,0.6133,0.6177,0.6199,0.6257,0.6292,0.6345,0.6399,0.6449,0.6519,0.6579,0.664,0.6703,0.6732,0.6747,0.6747,0.6745,0.6754,0.6739,0.6726,0.6734,0.6734,0.6734,0.6734,0.6734,0.6734,0.5986,0.6041,0.6072,0.615,0.6191,0.625,0.6282,0.6326,0.6369,0.6445,0.6495,0.6533,0.6591,0.6659,0.6716,0.6732,0.6754,0.6751,0.6771,0.6755,0.6755,0.6755,0.6744,0.6755,0.6755,0.6782,0.6782,0.6782]},{"header":{"parameterUnit":"m.s-1","parameterCategory":1,"la1":30.2991,"la2":30.254,"lo1":-89.0895,"lo2":-89.0444,"dy":0.0017,"dx":0.0017,"nx":28,"ny":28,"refTime":"2025-12-25T09:00:00:Z","depth":0,"parameterNumber":3,"parameterNumberName":"V-component_of_WINDS"},"data":[0,0,0,0,0,0,0,0,0,0,0,0,0,0,0,0,0,0,0,0,0,0,0,0,0,0,0,0,0,0,0,0,0,0,0,0,0,0,0,0,0,0,0,0,0,0,0,0,0,0,0,0,0,0,0,0,0,0,1.6436,1.6436,0,1.6392,1.6392,1.6391,1.6364,1.6364,1.6364,1.6363,1.6315,1.6314,1.6313,0,0,0,0,0,0,0,0,0,0,0,0,0,1.6494,1.6493,1.6436,1.6435,1.6435,1.6392,1.6391,1.6391,1.6364,1.6364,1.6364,1.6363,1.6316,1.6314,1.6313,0,0,0,0,0,0,0,0,0,0,0,0,0,1.6461,1.6493,1.6436,1.6416,1.6414,1.6392,1.6391,1.6391,1.6364,1.6364,1.6364,1.6363,1.6316,1.6314,1.6313,1.6306,0,0,1.6307,1.6307,0,0,0,0,0,0,0,0,1.6463,1.6459,1.642,1.6418,1.6415,1.6383,1.6394,1.6362,1.6364,1.6383,1.6363,1.6363,1.6338,1.6334,1.6326,1.6304,1.6302,1.6307,1.6306,1.6305,1.6305,0,0,0,0,0,0,0,1.6465,1.6461,1.6418,1.6419,1.6416,1.6409,1.6404,1.6388,1.6362,1.6381,1.6379,1.6375,1.6336,1.6328,1.6325,1.6301,1.6307,1.6306,1.6305,1.6304,1.627,1.627,0,0,0,0,0,0,1.6471,1.6463,1.642,1.6417,1.6439,1.6408,1.6402,1.6394,1.6362,1.6357,1.6375,1.6373,1.6331,1.6327,1.6323,1.6313,1.6305,1.6304,1.6303,1.627,1.627,1.627,0,0,0,0,0,0,1.6472,1.6468,1.6422,1.6439,1.6433,1.6407,1.6397,1.6393,1.6385,1.6357,1.6352,1.6371,1.6331,1.6326,1.6311,1.6311,1.6303,1.6301,1.627,1.627,1.627,1.6293,0,0,0,0,0,0,1.6474,1.6468,1.6466,1.644,1.6432,1.6411,1.6398,1.6392,1.6382,1.638,1.6352,1.6348,1.633,1.6313,1.6309,1.6309,1.63,1.627,1.627,1.627,1.6292,1.6294,1.6296,0,0,0,0,0,1.6476,1.6474,1.6466,1.6461,1.6429,1.6411,1.6407,1.6388,1.6382,1.6379,1.6362,1.6349,1.6312,1.6312,1.6307,1.6306,1.6269,1.627,1.627,1.6291,1.6294,1.6296,0,0,0,0,0,0,1.65,1.647,1.6461,1.645,1.6433,1.6406,1.6402,1.6391,1.6374,1.6373,1.6349,1.6343,1.633,1.6316,1.6317,1.6298,1.6289,1.6288,1.6307,1.6309,1.6311,1.6314,1.6299,0,0,0,0,0,1.6504,1.6492,1.6466,1.6459,1.6451,1.6428,1.642,1.6407,1.6388,1.638,1.6362,1.6343,1.6327,1.6317,1.6301,1.629,1.6284,1.6287,1.6289,1.629,1.629,1.6283,1.6284,1.6271,1.6271,1.6271,0,0,1.6511,1.6494,1.6488,1.6463,1.6449,1.6437,1.6422,1.641,1.6401,1.6378,1.6363,1.6349,1.6326,1.6313,1.6307,1.6301,1.6292,1.6291,1.6292,1.6291,1.6283,1.6284,1.6286,1.6272,1.6271,1.6271,0,0,1.6519,1.6505,1.6497,1.6484,1.6462,1.6447,1.6445,1.642,1.641,1.6395,1.6378,1.6366,1.6339,1.6324,1.6313,1.6316,1.6303,1.6311,1.632,1.6314,1.6315,1.6315,1.6316,1.6317,1.6311,1.6311,1.6311,0,1.6531,1.6514,1.6495,1.6484,1.6473,1.6453,1.6445,1.6432,1.6406,1.6399,1.6394,1.636,1.6344,1.6327,1.6328,1.6319,1.6316,1.6314,1.6316,1.6317,1.6317,1.6318,1.6318,1.6312,1.6312,1.6312,1.6312,0,1.6529,1.6517,1.6513,1.649,1.6479,1.647,1.6448,1.6439,1.6427,1.6412,1.6397,1.6377,1.6356,1.6351,1.6339,1.6332,1.633,1.6321,1.6312,1.632,1.632,1.632,1.6314,1.6313,1.6313,1.6313,0,0,1.655,1.6518,1.6516,1.6506,1.6481,1.6471,1.646,1.6441,1.6434,1.6417,1.6407,1.6385,1.6377,1.6364,1.6349,1.6344,1.6347,1.6335,1.6334,1.6338,1.6338,1.6346,1.6346,1.6338,1.6338,1.6338,1.634,0,1.6555,1.6536,1.6518,1.6505,1.6493,1.6474,1.6465,1.6448,1.6434,1.6421,1.6405,1.639,1.638,1.6373,1.6366,1.6348,1.6347,1.6348,1.6328,1.6328,1.6334,1.6346,1.6354,1.6356,1.634,1.634,1.634,0,1.6557,1.6542,1.6528,1.6505,1.6499,1.6491,1.6473,1.6461,1.6442,1.6432,1.6418,1.6403,1.639,1.6382,1.6363,1.6364,1.6355,1.6345,1.6345,1.6342,1.6334,1.6344,1.6357,1.6357,1.634,1.634,1.634,0,1.6574,1.655,1.6539,1.653,1.6503,1.6498,1.6486,1.6466,1.6456,1.6439,1.6432,1.6414,1.6404,1.639,1.637,1.6366,1.6353,1.6344,1.6344,1.6344,1.6341,1.6342,1.6353,1.6336,1.6336,1.6336,1.6336,0,1.6581,1.6573,1.6546,1.6539,1.653,1.6509,1.65,1.6486,1.6469,1.6458,1.644,1.643,1.6405,1.6392,1.6376,1.6363,1.6358,1.6349,1.6345,1.6351,1.6352,1.6344,1.6344,1.6336,1.6336,1.6336,1.6336,0,1.6598,1.658,1.6566,1.6542,1.6535,1.6529,1.6508,1.65,1.6485,1.6472,1.6467,1.6443,1.6427,1.6406,1.6382,1.6372,1.636,1.6354,1.6367,1.6365,1.6366,1.6366,1.6373,1.6372,1.6355,1.6355,1.6356,0,1.6603,1.6597,1.6572,1.6564,1.6553,1.6541,1.6531,1.6511,1.6501,1.6478,1.6473,1.6455,1.644,1.6414,1.6394,1.6376,1.6369,1.6373,1.6366,1.6372,1.6369,1.637,1.6369,1.6374,1.6374,1.6375,1.6375,0,1.6615,1.6606,1.6593,1.6577,1.6566,1.6552,1.6537,1.6531,1.6507,1.6497,1.6481,1.6469,1.6446,1.6428,1.6407,1.6394,1.638,1.6377,1.6376,1.6382,1.639,1.6386,1.6371,1.6377,1.6377,1.6377,1.6377,1.6377,1.6626,1.662,1.6602,1.6587,1.6574,1.6561,1.6552,1.6537,1.6523,1.6504,1.6492,1.6476,1.6456,1.6427,1.6414,1.6401,1.6396,1.6394,1.6394,1.6394,1.6396,1.6393,1.6397,1.6397,1.6397,1.6397,1.6396,0,1.6636,1.6624,1.6612,1.6592,1.6581,1.657,1.6553,1.6544,1.6531,1.6514,1.65,1.6481,1.6464,1.6443,1.6424,1.6417,1.6411,1.6413,1.6413,1.641,1.6401,1.6404,1.6419,1.6419,1.6419,1.6419,1.6419,1.6419,1.6641,1.663,1.6619,1.6601,1.6588,1.6574,1.6565,1.6552,1.6538,1.6519,1.6505,1.6492,1.6473,1.6453,1.6437,1.6431,1.6425,1.6429,1.6421,1.6413,1.6411,1.6409,1.6412,1.6428,1.6428,1.6431,1.6431,1.6431]}]]